Time,TemperatureF,DewpointF,PressureIn,WindDirection,WindDirectionDegrees,WindSpeedMPH,WindSpeedGustMPH,Humidity,HourlyPrecipIn,Conditions,Clouds,dailyrainin,SoftwareType,DateUTC
2013-03-26 00:02:00,25.4,8.0,30.36,NE,35,2.0,6.0,47,0.00,,SKC,0.01,VWS V14.00,2013-03-26 06:02:00,
2013-03-26 00:07:00,25.3,6.9,30.36,ENE,67,0.0,3.0,45,0.00,,SKC,0.00,VWS V14.00,2013-03-26 06:07:00,
2013-03-26 00:12:00,25.5,6.6,30.36,NNE,13,0.0,4.0,44,0.00,,SKC,0.00,VWS V14.00,2013-03-26 06:12:00,
2013-03-26 00:17:00,25.6,6.7,30.36,NE,55,3.0,4.0,44,0.00,,SKC,0.00,VWS V14.00,2013-03-26 06:17:00,
2013-03-26 00:22:00,25.7,7.3,30.36,ENE,71,0.0,6.0,45,0.00,,SKC,0.00,VWS V14.00,2013-03-26 06:22:00,
2013-03-26 00:28:00,25.4,8.0,30.35,ENE,69,1.0,6.0,47,0.00,,SKC,0.00,VWS V14.00,2013-03-26 06:28:00,
2013-03-26 00:33:00,25.1,7.2,30.36,ENE,78,2.0,2.0,46,0.00,,SKC,0.00,VWS V14.00,2013-03-26 06:33:00,
2013-03-26 00:38:00,24.8,6.5,30.35,ENE,69,0.0,4.0,45,0.00,,SKC,0.00,VWS V14.00,2013-03-26 06:38:00,
2013-03-26 00:44:00,24.7,7.8,30.35,NNW,346,0.0,4.0,48,0.00,,SKC,0.00,VWS V14.00,2013-03-26 06:44:00,
2013-03-26 00:49:00,24.3,7.9,30.35,North,350,2.0,5.0,49,0.00,,SKC,0.00,VWS V14.00,2013-03-26 06:49:00,
2013-03-26 00:54:00,24.4,7.1,30.35,NE,39,0.0,7.0,47,0.00,,SKC,0.00,VWS V14.00,2013-03-26 06:54:00,
2013-03-26 01:00:00,24.2,7.3,30.35,ENE,68,3.0,7.0,48,0.00,,SKC,0.00,VWS V14.00,2013-03-26 07:00:00,
2013-03-26 01:05:00,24.1,6.8,30.34,ENE,74,0.0,5.0,47,0.00,,SKC,0.00,VWS V14.00,2013-03-26 07:05:00,
2013-03-26 01:10:00,24.0,7.6,30.34,East,80,2.0,5.0,49,0.00,,SKC,0.00,VWS V14.00,2013-03-26 07:10:00,
2013-03-26 01:16:00,23.8,7.9,30.34,East,80,0.0,5.0,50,0.00,,SKC,0.00,VWS V14.00,2013-03-26 07:16:00,
2013-03-26 01:21:00,23.5,8.1,30.34,East,80,0.0,5.0,51,0.00,,SKC,0.00,VWS V14.00,2013-03-26 07:21:00,
2013-03-26 01:26:00,23.2,8.6,30.35,East,80,0.0,5.0,53,0.00,,SKC,0.00,VWS V14.00,2013-03-26 07:26:00,
2013-03-26 01:32:00,22.8,7.0,30.35,East,80,1.0,5.0,50,0.00,,SKC,0.00,VWS V14.00,2013-03-26 07:32:00,
2013-03-26 01:37:00,22.8,7.8,30.35,East,80,0.0,2.0,52,0.00,,SKC,0.00,VWS V14.00,2013-03-26 07:37:00,
2013-03-26 01:42:00,22.5,8.8,30.35,East,80,0.0,2.0,55,0.00,,SKC,0.00,VWS V14.00,2013-03-26 07:42:00,
2013-03-26 01:48:00,22.2,8.1,30.35,East,80,0.0,2.0,54,0.00,,SKC,0.00,VWS V14.00,2013-03-26 07:48:00,
2013-03-26 01:53:00,21.8,8.9,30.34,East,80,0.0,2.0,57,0.00,,SKC,0.00,VWS V14.00,2013-03-26 07:53:00,
2013-03-26 01:58:00,21.5,8.6,30.34,North,5,0.0,4.0,57,0.00,,SKC,0.00,VWS V14.00,2013-03-26 07:58:00,
2013-03-26 02:03:00,21.2,8.0,30.34,North,5,0.0,1.0,56,0.00,,SKC,0.00,VWS V14.00,2013-03-26 08:03:00,
2013-03-26 02:09:00,21.3,7.3,30.33,NE,38,0.0,4.0,54,0.00,,SKC,0.00,VWS V14.00,2013-03-26 08:09:00,
2013-03-26 02:14:00,21.6,7.5,30.33,NE,38,0.0,4.0,54,0.00,,SKC,0.00,VWS V14.00,2013-03-26 08:14:00,
2013-03-26 02:19:00,22.2,7.7,30.33,NE,55,1.0,4.0,53,0.00,,SKC,0.00,VWS V14.00,2013-03-26 08:19:00,
2013-03-26 02:25:00,22.9,7.9,30.33,ENE,58,1.0,4.0,52,0.00,,SKC,0.00,VWS V14.00,2013-03-26 08:25:00,
2013-03-26 02:30:00,22.9,7.5,30.32,ENE,58,3.0,4.0,51,0.00,,SKC,0.00,VWS V14.00,2013-03-26 08:30:00,
2013-03-26 02:35:00,23.1,7.2,30.33,NE,51,1.0,3.0,50,0.00,,SKC,0.00,VWS V14.00,2013-03-26 08:35:00,
2013-03-26 02:40:00,23.3,7.9,30.33,NE,51,0.0,3.0,51,0.00,,SKC,0.00,VWS V14.00,2013-03-26 08:40:00,
2013-03-26 02:46:00,23.0,8.0,30.33,NE,51,0.0,3.0,52,0.00,,SKC,0.00,VWS V14.00,2013-03-26 08:46:00,
2013-03-26 02:51:00,22.5,7.5,30.33,NE,51,0.0,3.0,52,0.00,,SKC,0.00,VWS V14.00,2013-03-26 08:51:00,
2013-03-26 02:56:00,22.1,8.0,30.32,NE,51,0.0,3.0,54,0.00,,SKC,0.00,VWS V14.00,2013-03-26 08:56:00,
2013-03-26 03:02:00,22.0,7.5,30.32,NE,51,0.0,3.0,53,0.00,,SKC,0.00,VWS V14.00,2013-03-26 09:02:00,
2013-03-26 03:07:00,22.1,8.8,30.32,NE,51,0.0,1.0,56,0.00,,SKC,0.00,VWS V14.00,2013-03-26 09:07:00,
2013-03-26 03:12:00,21.9,8.6,30.32,NE,51,0.0,2.0,56,0.00,,SKC,0.00,VWS V14.00,2013-03-26 09:12:00,
2013-03-26 03:17:00,21.7,9.2,30.32,NE,51,0.0,2.0,58,0.00,,SKC,0.00,VWS V14.00,2013-03-26 09:17:00,
2013-03-26 03:23:00,21.3,8.8,30.32,NE,51,0.0,2.0,58,0.00,,SKC,0.00,VWS V14.00,2013-03-26 09:23:00,
2013-03-26 03:28:00,21.1,9.0,30.31,NE,51,0.0,2.0,59,0.00,,SKC,0.00,VWS V14.00,2013-03-26 09:28:00,
2013-03-26 03:34:00,20.9,9.6,30.32,NE,51,0.0,0.0,61,0.00,,SKC,0.00,VWS V14.00,2013-03-26 09:34:00,
2013-03-26 03:39:00,20.6,9.3,30.32,NE,51,0.0,1.0,61,0.00,,SKC,0.00,VWS V14.00,2013-03-26 09:39:00,
2013-03-26 03:44:00,20.5,9.2,30.32,NE,51,0.0,1.0,61,0.00,,SKC,0.00,VWS V14.00,2013-03-26 09:44:00,
2013-03-26 03:50:00,20.4,8.4,30.31,NE,51,0.0,1.0,59,0.00,,SKC,0.00,VWS V14.00,2013-03-26 09:50:00,
2013-03-26 03:55:00,20.6,10.0,30.32,NE,51,0.0,2.0,63,0.00,,SKC,0.00,VWS V14.00,2013-03-26 09:55:00,
2013-03-26 04:00:00,20.7,9.4,30.31,NE,51,2.0,3.0,61,0.00,,SKC,0.00,VWS V14.00,2013-03-26 10:00:00,
2013-03-26 04:05:00,21.1,10.8,30.31,NE,51,4.0,4.0,64,0.00,,SKC,0.00,VWS V14.00,2013-03-26 10:05:00,
2013-03-26 04:11:00,21.4,10.1,30.30,NNE,20,1.0,6.0,61,0.00,,SKC,0.00,VWS V14.00,2013-03-26 10:11:00,
2013-03-26 04:16:00,21.5,9.8,30.30,ENE,65,0.0,6.0,60,0.00,,SKC,0.00,VWS V14.00,2013-03-26 10:16:00,
2013-03-26 04:21:00,21.7,10.0,30.31,ENE,65,1.0,6.0,60,0.00,,SKC,0.00,VWS V14.00,2013-03-26 10:21:00,
2013-03-26 04:26:00,21.8,10.1,30.31,ENE,65,0.0,6.0,60,0.00,,SKC,0.00,VWS V14.00,2013-03-26 10:26:00,
2013-03-26 04:32:00,21.9,10.2,30.30,ENE,65,0.0,6.0,60,0.00,,SKC,0.00,VWS V14.00,2013-03-26 10:32:00,
2013-03-26 04:37:00,21.9,10.2,30.31,ENE,65,0.0,0.0,60,0.00,,SKC,0.00,VWS V14.00,2013-03-26 10:37:00,
2013-03-26 04:42:00,22.1,8.8,30.30,ENE,65,2.0,3.0,56,0.00,,SKC,0.00,VWS V14.00,2013-03-26 10:42:00,
2013-03-26 04:47:00,22.5,10.4,30.30,ENE,65,0.0,3.0,59,0.00,,SKC,0.00,VWS V14.00,2013-03-26 10:47:00,
2013-03-26 04:53:00,22.3,10.9,30.30,NNE,13,3.0,4.0,61,0.00,,SKC,0.00,VWS V14.00,2013-03-26 10:53:00,
2013-03-26 04:58:00,22.0,9.9,30.30,NNE,14,0.0,4.0,59,0.00,,SKC,0.00,VWS V14.00,2013-03-26 10:58:00,
2013-03-26 05:03:00,22.1,9.6,30.30,NNE,14,0.0,2.0,58,0.00,,SKC,0.00,VWS V14.00,2013-03-26 11:03:00,
2013-03-26 05:09:00,22.2,10.1,30.30,NNE,14,0.0,2.0,59,0.00,,SKC,0.00,VWS V14.00,2013-03-26 11:09:00,
2013-03-26 05:14:00,22.1,10.7,30.30,NNE,14,0.0,2.0,61,0.00,,SKC,0.00,VWS V14.00,2013-03-26 11:14:00,
2013-03-26 05:19:00,21.9,10.2,30.29,NNE,14,0.0,2.0,60,0.00,,SKC,0.00,VWS V14.00,2013-03-26 11:19:00,
2013-03-26 05:24:00,21.8,10.1,30.29,NNE,14,0.0,2.0,60,0.00,,SKC,0.00,VWS V14.00,2013-03-26 11:24:00,
2013-03-26 05:30:00,21.8,9.7,30.30,NNE,14,1.0,2.0,59,0.00,,SKC,0.00,VWS V14.00,2013-03-26 11:30:00,
2013-03-26 05:35:00,22.0,11.0,30.29,NNE,14,0.0,1.0,62,0.00,,SKC,0.00,VWS V14.00,2013-03-26 11:35:00,
2013-03-26 05:41:00,21.9,11.2,30.30,NNE,14,0.0,1.0,63,0.00,,SKC,0.00,VWS V14.00,2013-03-26 11:41:00,
2013-03-26 05:46:00,21.8,11.2,30.30,NNE,14,0.0,1.0,63,0.00,,SKC,0.00,VWS V14.00,2013-03-26 11:46:00,
2013-03-26 05:51:00,21.6,11.3,30.29,NNE,14,0.0,1.0,64,0.00,,SKC,0.00,VWS V14.00,2013-03-26 11:51:00,
2013-03-26 05:57:00,21.4,11.1,30.30,NNE,14,0.0,1.0,64,0.00,,SKC,0.00,VWS V14.00,2013-03-26 11:57:00,
2013-03-26 06:02:00,21.3,11.0,30.29,NNE,14,0.0,1.0,64,0.00,,SKC,0.00,VWS V14.00,2013-03-26 12:02:00,
2013-03-26 06:07:00,21.3,11.0,30.29,NNE,14,0.0,1.0,64,0.00,,SKC,0.00,VWS V14.00,2013-03-26 12:07:00,
2013-03-26 06:12:00,21.2,12.0,30.29,NNE,14,0.0,1.0,67,0.00,,SKC,0.00,VWS V14.00,2013-03-26 12:12:00,
2013-03-26 06:18:00,20.9,11.7,30.29,NNE,14,0.0,1.0,67,0.00,,SKC,0.00,VWS V14.00,2013-03-26 12:18:00,
2013-03-26 06:23:00,20.9,11.0,30.29,NNE,14,0.0,1.0,65,0.00,,SKC,0.00,VWS V14.00,2013-03-26 12:23:00,
2013-03-26 06:29:00,20.8,11.9,30.29,NNE,14,0.0,1.0,68,0.00,,SKC,0.00,VWS V14.00,2013-03-26 12:29:00,
2013-03-26 06:34:00,20.8,11.9,30.29,NNE,14,0.0,0.0,68,0.00,,SKC,0.00,VWS V14.00,2013-03-26 12:34:00,
2013-03-26 06:39:00,20.7,11.8,30.29,NNE,14,0.0,0.0,68,0.00,,SKC,0.00,VWS V14.00,2013-03-26 12:39:00,
2013-03-26 06:44:00,20.6,11.7,30.29,NNE,14,0.0,0.0,68,0.00,,SKC,0.00,VWS V14.00,2013-03-26 12:44:00,
2013-03-26 06:50:00,20.5,12.0,30.29,NNE,14,0.0,0.0,69,0.00,,SKC,0.00,VWS V14.00,2013-03-26 12:50:00,
2013-03-26 06:55:00,20.4,11.5,30.29,NNE,14,0.0,0.0,68,0.00,,SKC,0.00,VWS V14.00,2013-03-26 12:55:00,
2013-03-26 07:01:00,20.4,12.2,30.28,NNE,14,0.0,0.0,70,0.00,,SKC,0.00,VWS V14.00,2013-03-26 13:01:00,
2013-03-26 07:07:00,20.3,12.1,30.28,NNE,14,0.0,0.0,70,0.00,,SKC,0.00,VWS V14.00,2013-03-26 13:07:00,
2013-03-26 07:12:00,20.2,12.6,30.29,NNE,14,0.0,0.0,72,0.00,,SKC,0.00,VWS V14.00,2013-03-26 13:12:00,
2013-03-26 07:17:00,20.2,12.3,30.29,NNE,14,0.0,0.0,71,0.00,,SKC,0.00,VWS V14.00,2013-03-26 13:17:00,
2013-03-26 07:23:00,20.2,12.3,30.29,NNE,14,0.0,0.0,71,0.00,,SKC,0.00,VWS V14.00,2013-03-26 13:23:00,
2013-03-26 07:28:00,20.2,12.0,30.28,NNE,14,0.0,1.0,70,0.00,,SKC,0.00,VWS V14.00,2013-03-26 13:28:00,
2013-03-26 07:33:00,20.4,12.2,30.28,NNE,14,0.0,0.0,70,0.00,,SKC,0.00,VWS V14.00,2013-03-26 13:33:00,
2013-03-26 07:38:00,20.6,12.7,30.28,NNE,14,0.0,2.0,71,0.00,,SKC,0.00,VWS V14.00,2013-03-26 13:38:00,
2013-03-26 07:44:00,20.8,13.5,30.28,NNE,14,1.0,2.0,73,0.00,,SKC,0.00,VWS V14.00,2013-03-26 13:44:00,
2013-03-26 07:49:00,20.9,13.0,30.28,NNE,14,0.0,2.0,71,0.00,,SKC,0.00,VWS V14.00,2013-03-26 13:49:00,
2013-03-26 07:54:00,21.2,13.0,30.28,NNE,14,0.0,2.0,70,0.00,,SKC,0.00,VWS V14.00,2013-03-26 13:54:00,
2013-03-26 08:00:00,21.5,13.2,30.28,NNE,14,0.0,2.0,70,0.00,,SKC,0.00,VWS V14.00,2013-03-26 14:00:00,
2013-03-26 08:05:00,21.8,13.5,30.27,NNE,14,0.0,0.0,70,0.00,,SKC,0.00,VWS V14.00,2013-03-26 14:05:00,
2013-03-26 08:10:00,22.1,13.2,30.27,NNE,14,0.0,0.0,68,0.00,,SKC,0.00,VWS V14.00,2013-03-26 14:10:00,
2013-03-26 08:16:00,22.6,13.3,30.26,NNE,14,0.0,0.0,67,0.00,,SKC,0.00,VWS V14.00,2013-03-26 14:16:00,
2013-03-26 08:21:00,23.0,13.4,30.26,NNE,14,0.0,0.0,66,0.00,,SKC,0.00,VWS V14.00,2013-03-26 14:21:00,
2013-03-26 08:27:00,23.5,13.8,30.26,NNE,14,0.0,0.0,66,0.00,,SKC,0.00,VWS V14.00,2013-03-26 14:27:00,
2013-03-26 08:32:00,23.9,13.9,30.26,NNE,14,0.0,0.0,65,0.00,,SKC,0.00,VWS V14.00,2013-03-26 14:32:00,
2013-03-26 08:37:00,24.3,13.9,30.26,NNE,14,0.0,1.0,64,0.00,,SKC,0.00,VWS V14.00,2013-03-26 14:37:00,
2013-03-26 08:43:00,24.7,13.9,30.26,NNE,14,0.0,1.0,63,0.00,,SKC,0.00,VWS V14.00,2013-03-26 14:43:00,
2013-03-26 08:48:00,25.1,13.6,30.26,NNE,15,0.0,2.0,61,0.00,,SKC,0.00,VWS V14.00,2013-03-26 14:48:00,
2013-03-26 08:53:00,25.8,12.3,30.26,ENE,66,0.0,2.0,56,0.00,,SKC,0.00,VWS V14.00,2013-03-26 14:53:00,
2013-03-26 08:59:00,26.6,12.2,30.25,ENE,66,0.0,2.0,54,0.00,,SKC,0.00,VWS V14.00,2013-03-26 14:59:00,
2013-03-26 09:04:00,27.5,11.8,30.25,ENE,66,0.0,0.0,51,0.00,,SKC,0.00,VWS V14.00,2013-03-26 15:04:00,
2013-03-26 09:09:00,28.3,12.5,30.25,ENE,66,3.0,3.0,51,0.00,,SKC,0.00,VWS V14.00,2013-03-26 15:09:00,
2013-03-26 09:15:00,29.1,11.4,30.24,ESE,116,0.0,4.0,47,0.00,,SKC,0.00,VWS V14.00,2013-03-26 15:15:00,
2013-03-26 09:20:00,29.7,12.9,30.25,ESE,116,0.0,4.0,49,0.00,,SKC,0.00,VWS V14.00,2013-03-26 15:20:00,
2013-03-26 09:26:00,30.3,12.5,30.25,SSW,198,1.0,4.0,47,0.00,,SKC,0.00,VWS V14.00,2013-03-26 15:26:00,
2013-03-26 09:31:00,30.7,12.9,30.25,South,175,1.0,5.0,47,0.00,,SKC,0.00,VWS V14.00,2013-03-26 15:31:00,
2013-03-26 09:36:00,30.9,12.1,30.24,South,179,0.0,5.0,45,0.00,,SKC,0.00,VWS V14.00,2013-03-26 15:36:00,
2013-03-26 09:42:00,31.1,11.8,30.23,South,179,0.0,5.0,44,0.00,,SKC,0.00,VWS V14.00,2013-03-26 15:42:00,
2013-03-26 09:47:00,31.5,12.6,30.23,South,179,0.0,5.0,45,0.00,,SKC,0.00,VWS V14.00,2013-03-26 15:47:00,
2013-03-26 09:52:00,31.9,13.0,30.23,South,179,0.0,5.0,45,0.00,,SKC,0.00,VWS V14.00,2013-03-26 15:52:00,
2013-03-26 09:58:00,32.4,12.9,30.23,South,179,0.0,5.0,44,0.00,,SKC,0.00,VWS V14.00,2013-03-26 15:58:00,
2013-03-26 10:03:00,32.8,13.3,30.23,South,179,0.0,1.0,44,0.00,,SKC,0.00,VWS V14.00,2013-03-26 16:03:00,
2013-03-26 10:08:00,33.4,13.9,30.22,South,179,1.0,2.0,44,0.00,,SKC,0.00,VWS V14.00,2013-03-26 16:08:00,
2013-03-26 10:13:00,34.1,14.0,30.22,South,179,0.0,2.0,43,0.00,,SKC,0.00,VWS V14.00,2013-03-26 16:13:00,
2013-03-26 10:18:00,35.0,13.1,30.22,South,179,1.0,2.0,40,0.00,,SKC,0.00,VWS V14.00,2013-03-26 16:18:00,
2013-03-26 10:24:00,35.5,13.0,30.21,South,179,0.0,2.0,39,0.00,,SKC,0.00,VWS V14.00,2013-03-26 16:24:00,
2013-03-26 10:29:00,36.1,14.1,30.20,South,179,0.0,4.0,40,0.00,,SKC,0.00,VWS V14.00,2013-03-26 16:29:00,
2013-03-26 10:34:00,36.5,14.5,30.20,South,178,0.0,1.0,40,0.00,,SKC,0.00,VWS V14.00,2013-03-26 16:34:00,
2013-03-26 10:39:00,37.0,14.4,30.20,South,178,0.0,1.0,39,0.00,,SKC,0.00,VWS V14.00,2013-03-26 16:39:00,
2013-03-26 10:45:00,37.4,14.1,30.20,South,178,0.0,1.0,38,0.00,,SKC,0.00,VWS V14.00,2013-03-26 16:45:00,
2013-03-26 10:50:00,38.0,14.7,30.19,South,178,0.0,1.0,38,0.00,,SKC,0.00,VWS V14.00,2013-03-26 16:50:00,
2013-03-26 10:56:00,38.6,15.2,30.18,South,179,2.0,4.0,38,0.00,,SKC,0.00,VWS V14.00,2013-03-26 16:56:00,
2013-03-26 11:01:00,38.8,14.8,30.18,South,179,0.0,4.0,37,0.00,,SKC,0.00,VWS V14.00,2013-03-26 17:01:00,
2013-03-26 11:07:00,39.1,15.0,30.17,South,179,5.0,5.0,37,0.00,,SKC,0.00,VWS V14.00,2013-03-26 17:07:00,
2013-03-26 11:12:00,39.2,15.1,30.17,South,179,1.0,5.0,37,0.00,,SKC,0.00,VWS V14.00,2013-03-26 17:12:00,
2013-03-26 11:18:00,39.6,16.1,30.17,South,180,1.0,5.0,38,0.00,,SKC,0.00,VWS V14.00,2013-03-26 17:18:00,
2013-03-26 11:23:00,40.2,16.0,30.16,South,180,0.0,5.0,37,0.00,,SKC,0.00,VWS V14.00,2013-03-26 17:23:00,
2013-03-26 11:28:00,40.7,15.8,30.16,South,180,0.0,5.0,36,0.00,,SKC,0.00,VWS V14.00,2013-03-26 17:28:00,
2013-03-26 11:33:00,41.3,16.4,30.16,South,180,0.0,2.0,36,0.00,,SKC,0.00,VWS V14.00,2013-03-26 17:33:00,
2013-03-26 11:38:00,41.8,16.2,30.15,South,180,0.0,2.0,35,0.00,,SKC,0.00,VWS V14.00,2013-03-26 17:38:00,
2013-03-26 11:44:00,42.4,16.7,30.15,South,180,0.0,2.0,35,0.00,,SKC,0.00,VWS V14.00,2013-03-26 17:44:00,
2013-03-26 11:49:00,43.2,18.1,30.14,South,180,1.0,3.0,36,0.00,,SKC,0.00,VWS V14.00,2013-03-26 17:49:00,
2013-03-26 11:54:00,43.8,18.0,30.14,South,180,1.0,3.0,35,0.00,,SKC,0.00,VWS V14.00,2013-03-26 17:54:00,
2013-03-26 11:59:00,44.5,17.9,30.14,South,180,0.0,3.0,34,0.00,,SKC,0.00,VWS V14.00,2013-03-26 17:59:00,
2013-03-26 12:05:00,45.1,17.7,30.13,South,180,0.0,3.0,33,0.00,,SKC,0.00,VWS V14.00,2013-03-26 18:05:00,
2013-03-26 12:10:00,45.5,18.1,30.13,South,180,0.0,3.0,33,0.00,,SKC,0.00,VWS V14.00,2013-03-26 18:10:00,
2013-03-26 12:15:00,46.1,17.9,30.12,South,180,0.0,3.0,32,0.00,,SKC,0.00,VWS V14.00,2013-03-26 18:15:00,
2013-03-26 12:20:00,46.8,17.8,30.12,SW,215,1.0,4.0,31,0.00,,SKC,0.00,VWS V14.00,2013-03-26 18:20:00,
2013-03-26 12:26:00,47.5,18.4,30.12,South,182,2.0,5.0,31,0.00,,SKC,0.00,VWS V14.00,2013-03-26 18:26:00,
2013-03-26 12:31:00,47.6,18.5,30.12,South,182,0.0,5.0,31,0.00,,SKC,0.00,VWS V14.00,2013-03-26 18:31:00,
2013-03-26 12:36:00,48.0,18.1,30.11,South,182,0.0,3.0,30,0.00,,SKC,0.00,VWS V14.00,2013-03-26 18:36:00,
2013-03-26 12:42:00,48.2,18.2,30.11,South,182,0.0,4.0,30,0.00,,SKC,0.00,VWS V14.00,2013-03-26 18:42:00,
2013-03-26 12:47:00,48.4,18.4,30.11,South,182,2.0,4.0,30,0.00,,SKC,0.00,VWS V14.00,2013-03-26 18:47:00,
2013-03-26 12:52:00,48.4,17.6,30.11,South,177,2.0,8.0,29,0.00,,SKC,0.00,VWS V14.00,2013-03-26 18:52:00,
2013-03-26 12:58:00,48.3,17.5,30.10,South,177,0.0,8.0,29,0.00,,SKC,0.00,VWS V14.00,2013-03-26 18:58:00,
2013-03-26 13:03:00,48.3,17.5,30.10,South,177,0.0,2.0,29,0.00,,SKC,0.00,VWS V14.00,2013-03-26 19:03:00,
2013-03-26 13:08:00,48.7,17.9,30.10,South,177,0.0,4.0,29,0.00,,SKC,0.00,VWS V14.00,2013-03-26 19:08:00,
2013-03-26 13:13:00,49.2,17.5,30.09,South,182,0.0,7.0,28,0.00,,SKC,0.00,VWS V14.00,2013-03-26 19:13:00,
2013-03-26 13:19:00,50.0,18.2,30.09,NNE,33,1.0,8.0,28,0.00,,SKC,0.00,VWS V14.00,2013-03-26 19:19:00,
2013-03-26 13:24:00,50.3,17.6,30.09,NE,40,0.0,8.0,27,0.00,,SKC,0.00,VWS V14.00,2013-03-26 19:24:00,
2013-03-26 13:29:00,50.8,17.2,30.09,NE,53,3.0,8.0,26,0.00,,SKC,0.00,VWS V14.00,2013-03-26 19:29:00,
2013-03-26 13:35:00,51.0,18.2,30.08,North,355,4.0,5.0,27,0.00,,SKC,0.00,VWS V14.00,2013-03-26 19:35:00,
2013-03-26 13:40:00,51.8,18.9,30.08,SSW,192,6.0,6.0,27,0.00,,SKC,0.00,VWS V14.00,2013-03-26 19:40:00,
2013-03-26 13:45:00,52.2,18.4,30.08,SSW,201,1.0,8.0,26,0.00,,SKC,0.00,VWS V14.00,2013-03-26 19:45:00,
2013-03-26 13:51:00,53.0,18.1,30.07,SSE,161,0.0,11.0,25,0.00,,SKC,0.00,VWS V14.00,2013-03-26 19:51:00,
2013-03-26 13:57:00,53.6,18.6,30.07,NNE,22,1.0,11.0,25,0.00,,SKC,0.00,VWS V14.00,2013-03-26 19:57:00,
2013-03-26 14:02:00,53.5,17.6,30.07,South,169,11.0,15.0,24,0.00,,SKC,0.00,VWS V14.00,2013-03-26 20:02:00,
2013-03-26 14:07:00,52.9,17.1,30.06,East,81,2.0,13.0,24,0.00,,SKC,0.00,VWS V14.00,2013-03-26 20:07:00,
2013-03-26 14:13:00,53.3,19.3,30.06,SW,224,6.0,13.0,26,0.00,,SKC,0.00,VWS V14.00,2013-03-26 20:13:00,
2013-03-26 14:18:00,53.7,17.8,30.06,South,180,2.0,13.0,24,0.00,,SKC,0.00,VWS V14.00,2013-03-26 20:18:00,
2013-03-26 14:23:00,53.7,17.8,30.06,NW,319,6.0,13.0,24,0.00,,SKC,0.00,VWS V14.00,2013-03-26 20:23:00,
2013-03-26 14:28:00,53.1,19.1,30.05,SW,217,6.0,13.0,26,0.00,,SKC,0.00,VWS V14.00,2013-03-26 20:28:00,
2013-03-26 14:34:00,52.7,17.9,30.05,WSW,250,2.0,10.0,25,0.00,,SKC,0.00,VWS V14.00,2013-03-26 20:34:00,
2013-03-26 14:39:00,52.4,17.6,30.04,South,172,2.0,11.0,25,0.00,,SKC,0.00,VWS V14.00,2013-03-26 20:39:00,
2013-03-26 14:44:00,52.6,17.8,30.04,South,169,0.0,11.0,25,0.00,,SKC,0.00,VWS V14.00,2013-03-26 20:44:00,
2013-03-26 14:49:00,52.6,16.9,30.03,SE,138,5.0,20.0,24,0.00,,SKC,0.00,VWS V14.00,2013-03-26 20:49:00,
2013-03-26 14:54:00,52.2,18.4,30.03,SSW,206,2.0,20.0,26,0.00,,SKC,0.00,VWS V14.00,2013-03-26 20:54:00,
2013-03-26 15:00:00,52.3,17.5,30.03,South,185,0.0,20.0,25,0.00,,SKC,0.00,VWS V14.00,2013-03-26 21:00:00,
2013-03-26 15:05:00,52.3,18.5,30.02,SSW,201,0.0,4.0,26,0.00,,SKC,0.00,VWS V14.00,2013-03-26 21:05:00,
2013-03-26 15:11:00,52.3,18.5,30.02,NW,311,0.0,5.0,26,0.00,,SKC,0.00,VWS V14.00,2013-03-26 21:11:00,
2013-03-26 15:16:00,52.3,17.5,30.02,SSE,155,2.0,7.0,25,0.00,,SKC,0.00,VWS V14.00,2013-03-26 21:16:00,
2013-03-26 15:21:00,52.1,18.3,30.01,West,269,0.0,7.0,26,0.00,,SKC,0.00,VWS V14.00,2013-03-26 21:21:00,
2013-03-26 15:27:00,52.4,17.6,30.01,ENE,57,2.0,7.0,25,0.00,,SKC,0.00,VWS V14.00,2013-03-26 21:27:00,
2013-03-26 15:33:00,52.7,17.9,30.00,ENE,57,0.0,0.0,25,0.00,,SKC,0.00,VWS V14.00,2013-03-26 21:33:00,
2013-03-26 15:38:00,52.9,18.0,30.00,SW,219,3.0,7.0,25,0.00,,SKC,0.00,VWS V14.00,2013-03-26 21:38:00,
2013-03-26 15:44:00,52.9,19.0,30.00,South,175,0.0,7.0,26,0.00,,SKC,0.00,VWS V14.00,2013-03-26 21:44:00,
2013-03-26 15:49:00,53.0,19.0,29.99,South,182,5.0,7.0,26,0.00,,SKC,0.00,VWS V14.00,2013-03-26 21:49:00,
2013-03-26 15:54:00,53.0,18.1,29.99,South,184,1.0,7.0,25,0.00,,SKC,0.00,VWS V14.00,2013-03-26 21:54:00,
2013-03-26 16:00:00,53.5,18.6,29.98,South,189,4.0,7.0,25,0.00,,SKC,0.00,VWS V14.00,2013-03-26 22:00:00,
2013-03-26 16:05:00,53.7,18.7,29.98,SSW,209,3.0,3.0,25,0.00,,SKC,0.00,VWS V14.00,2013-03-26 22:05:00,
2013-03-26 16:10:00,53.9,18.9,29.98,South,173,0.0,5.0,25,0.00,,SKC,0.00,VWS V14.00,2013-03-26 22:10:00,
2013-03-26 16:16:00,54.0,19.0,29.98,ESE,120,0.0,5.0,25,0.00,,SKC,0.00,VWS V14.00,2013-03-26 22:16:00,
2013-03-26 16:22:00,54.1,18.1,29.97,ESE,111,0.0,7.0,24,0.00,,SKC,0.00,VWS V14.00,2013-03-26 22:22:00,
2013-03-26 16:27:00,54.2,18.2,29.97,SSW,195,0.0,7.0,24,0.00,,SKC,0.00,VWS V14.00,2013-03-26 22:27:00,
2013-03-26 16:33:00,54.4,18.4,29.97,West,265,3.0,8.0,24,0.00,,SKC,0.00,VWS V14.00,2013-03-26 22:33:00,
2013-03-26 16:38:00,54.8,17.7,29.97,SSW,200,0.0,8.0,23,0.00,,SKC,0.00,VWS V14.00,2013-03-26 22:38:00,
2013-03-26 16:43:00,55.6,18.4,29.96,SSE,158,1.0,11.0,23,0.00,,SKC,0.00,VWS V14.00,2013-03-26 22:43:00,
2013-03-26 16:49:00,56.4,19.1,29.96,SSW,194,2.0,13.0,23,0.00,,SKC,0.00,VWS V14.00,2013-03-26 22:49:00,
2013-03-26 16:54:00,56.2,17.9,29.96,SSW,213,9.0,19.0,22,0.00,,SKC,0.00,VWS V14.00,2013-03-26 22:54:00,
2013-03-26 16:59:00,55.8,17.5,29.96,SW,219,3.0,19.0,22,0.00,,SKC,0.00,VWS V14.00,2013-03-26 22:59:00,
2013-03-26 17:04:00,56.2,18.9,29.96,South,186,4.0,13.0,23,0.00,,SKC,0.00,VWS V14.00,2013-03-26 23:04:00,
2013-03-26 17:09:00,56.0,18.8,29.96,SW,217,7.0,14.0,23,0.00,,SKC,0.00,VWS V14.00,2013-03-26 23:09:00,
2013-03-26 17:15:00,55.4,17.2,29.96,SSW,198,7.0,16.0,22,0.00,,SKC,0.00,VWS V14.00,2013-03-26 23:15:00,
2013-03-26 17:20:00,55.1,17.0,29.95,SSW,192,5.0,21.0,22,0.00,,SKC,0.00,VWS V14.00,2013-03-26 23:20:00,
2013-03-26 17:25:00,54.9,16.8,29.95,SW,223,5.0,21.0,22,0.00,,SKC,0.00,VWS V14.00,2013-03-26 23:25:00,
2013-03-26 17:31:00,54.7,17.6,29.96,South,175,2.0,21.0,23,0.00,,SKC,0.00,VWS V14.00,2013-03-26 23:31:00,
2013-03-26 17:37:00,54.6,17.6,29.95,SSW,209,0.0,5.0,23,0.00,,SKC,0.00,VWS V14.00,2013-03-26 23:37:00,
2013-03-26 17:42:00,54.7,17.6,29.95,South,172,6.0,9.0,23,0.00,,SKC,0.00,VWS V14.00,2013-03-26 23:42:00,
2013-03-26 17:47:00,54.6,17.6,29.95,South,172,0.0,10.0,23,0.00,,SKC,0.00,VWS V14.00,2013-03-26 23:47:00,
2013-03-26 17:53:00,54.6,17.6,29.95,WSW,237,1.0,10.0,23,0.00,,SKC,0.00,VWS V14.00,2013-03-26 23:53:00,
2013-03-26 17:59:00,54.6,18.5,29.95,SSE,167,2.0,10.0,24,0.00,,SKC,0.00,VWS V14.00,2013-03-26 23:59:00,
2013-03-26 18:04:00,54.5,17.5,29.95,SSE,153,6.0,9.0,23,0.00,,SKC,0.00,VWS V14.00,2013-03-27 00:04:00,
2013-03-26 18:09:00,54.5,18.5,29.95,SSW,213,0.0,9.0,24,0.00,,SKC,0.00,VWS V14.00,2013-03-27 00:09:00,
2013-03-26 18:14:00,54.4,18.4,29.95,SSW,213,1.0,9.0,24,0.00,,SKC,0.00,VWS V14.00,2013-03-27 00:14:00,
2013-03-26 18:19:00,54.4,19.3,29.95,SSW,213,0.0,9.0,25,0.00,,SKC,0.00,VWS V14.00,2013-03-27 00:19:00,
2013-03-26 18:24:00,54.5,18.5,29.95,SSW,213,0.0,9.0,24,0.00,,SKC,0.00,VWS V14.00,2013-03-27 00:24:00,
2013-03-26 18:30:00,54.6,18.5,29.94,SSE,158,0.0,9.0,24,0.00,,SKC,0.00,VWS V14.00,2013-03-27 00:30:00,
2013-03-26 18:35:00,54.5,18.5,29.94,SSE,157,8.0,11.0,24,0.00,,SKC,0.00,VWS V14.00,2013-03-27 00:35:00,
2013-03-26 18:40:00,54.3,19.2,29.95,SSW,205,0.0,11.0,25,0.00,,SKC,0.00,VWS V14.00,2013-03-27 00:40:00,
2013-03-26 18:45:00,54.1,19.1,29.95,SSW,206,0.0,11.0,25,0.00,,SKC,0.00,VWS V14.00,2013-03-27 00:45:00,
2013-03-26 18:51:00,53.7,19.6,29.95,SSW,211,0.0,11.0,26,0.00,,SKC,0.00,VWS V14.00,2013-03-27 00:51:00,
2013-03-26 18:56:00,52.9,20.7,29.95,ENE,78,0.0,11.0,28,0.00,,SKC,0.00,VWS V14.00,2013-03-27 00:56:00,
2013-03-26 19:01:00,52.3,18.5,29.95,South,173,1.0,11.0,26,0.00,,SKC,0.00,VWS V14.00,2013-03-27 01:01:00,
2013-03-26 19:07:00,52.6,17.8,29.95,SSW,200,3.0,10.0,25,0.00,,SKC,0.00,VWS V14.00,2013-03-27 01:07:00,
2013-03-26 19:12:00,52.9,17.1,29.94,SW,222,3.0,11.0,24,0.00,,SKC,0.00,VWS V14.00,2013-03-27 01:12:00,
2013-03-26 19:17:00,52.3,19.3,29.95,East,88,3.0,11.0,27,0.00,,SKC,0.00,VWS V14.00,2013-03-27 01:17:00,
2013-03-26 19:23:00,51.4,18.6,29.94,East,86,0.0,11.0,27,0.00,,SKC,0.00,VWS V14.00,2013-03-27 01:23:00,
2013-03-26 19:28:00,49.4,21.5,29.95,East,83,0.0,11.0,33,0.00,,SKC,0.00,VWS V14.00,2013-03-27 01:28:00,
2013-03-26 19:33:00,48.6,19.4,29.95,East,80,1.0,5.0,31,0.00,,SKC,0.00,VWS V14.00,2013-03-27 01:33:00,
2013-03-26 19:39:00,47.6,22.0,29.94,ENE,58,2.0,5.0,36,0.00,,SKC,0.00,VWS V14.00,2013-03-27 01:39:00,
2013-03-26 19:44:00,45.6,22.7,29.94,ENE,58,2.0,5.0,40,0.00,,SKC,0.00,VWS V14.00,2013-03-27 01:44:00,
2013-03-26 19:50:00,44.5,22.3,29.94,NE,47,0.0,5.0,41,0.00,,SKC,0.00,VWS V14.00,2013-03-27 01:50:00,
2013-03-26 19:55:00,43.1,23.2,29.94,NE,47,3.0,5.0,45,0.00,,SKC,0.00,VWS V14.00,2013-03-27 01:55:00,
2013-03-26 20:00:00,42.1,22.8,29.95,NE,47,1.0,5.0,46,0.00,,SKC,0.00,VWS V14.00,2013-03-27 02:00:00,
2013-03-26 20:05:00,41.5,22.3,29.95,NE,47,0.0,3.0,46,0.00,,SKC,0.00,VWS V14.00,2013-03-27 02:05:00,
2013-03-26 20:11:00,41.2,23.5,29.95,NE,47,0.0,3.0,49,0.00,,SKC,0.00,VWS V14.00,2013-03-27 02:11:00,
2013-03-26 20:17:00,40.8,22.6,29.96,NE,47,0.0,3.0,48,0.00,,SKC,0.00,VWS V14.00,2013-03-27 02:17:00,
2013-03-26 20:22:00,40.2,25.3,29.96,NE,47,1.0,3.0,55,0.00,,SKC,0.00,VWS V14.00,2013-03-27 02:22:00,
2013-03-26 20:27:00,39.5,25.1,29.96,NE,47,1.0,3.0,56,0.00,,SKC,0.00,VWS V14.00,2013-03-27 02:27:00,
2013-03-26 20:32:00,39.0,25.1,29.96,NE,47,0.0,0.0,57,0.00,,SKC,0.00,VWS V14.00,2013-03-27 02:32:00,
2013-03-26 20:38:00,38.7,23.5,29.97,NE,47,0.0,1.0,54,0.00,,SKC,0.00,VWS V14.00,2013-03-27 02:38:00,
2013-03-26 20:43:00,38.6,25.5,29.97,NE,47,0.0,2.0,59,0.00,,SKC,0.00,VWS V14.00,2013-03-27 02:43:00,
2013-03-26 20:48:00,38.4,23.7,29.97,NE,47,0.0,2.0,55,0.00,,SKC,0.00,VWS V14.00,2013-03-27 02:48:00,
2013-03-26 20:53:00,38.2,24.7,29.97,NE,47,0.0,2.0,58,0.00,,SKC,0.00,VWS V14.00,2013-03-27 02:53:00,
2013-03-26 20:59:00,38.2,23.5,29.97,NE,47,0.0,2.0,55,0.00,,SKC,0.00,VWS V14.00,2013-03-27 02:59:00,
2013-03-26 21:04:00,38.3,24.0,29.97,NE,47,0.0,2.0,56,0.00,,SKC,0.00,VWS V14.00,2013-03-27 03:04:00,
2013-03-26 21:09:00,38.2,23.9,29.97,NE,47,0.0,2.0,56,0.00,,SKC,0.00,VWS V14.00,2013-03-27 03:09:00,
2013-03-26 21:14:00,38.3,24.8,29.97,NE,47,1.0,3.0,58,0.00,,SKC,0.00,VWS V14.00,2013-03-27 03:14:00,
2013-03-26 21:20:00,38.2,23.9,29.97,NE,47,0.0,3.0,56,0.00,,SKC,0.00,VWS V14.00,2013-03-27 03:20:00,
2013-03-26 21:25:00,38.0,23.7,29.98,NE,47,3.0,3.0,56,0.00,,SKC,0.00,VWS V14.00,2013-03-27 03:25:00,
2013-03-26 21:30:00,38.4,24.1,29.98,ENE,58,0.0,4.0,56,0.00,,SKC,0.00,VWS V14.00,2013-03-27 03:30:00,
2013-03-26 21:36:00,38.4,23.2,29.98,ENE,58,0.0,3.0,54,0.00,,SKC,0.00,VWS V14.00,2013-03-27 03:36:00,
2013-03-26 21:41:00,38.7,23.5,29.98,ENE,58,2.0,4.0,54,0.00,,SKC,0.00,VWS V14.00,2013-03-27 03:41:00,
2013-03-26 21:46:00,38.2,23.5,29.98,ENE,58,2.0,4.0,55,0.00,,SKC,0.00,VWS V14.00,2013-03-27 03:46:00,
2013-03-26 21:52:00,38.0,23.7,29.98,ENE,58,0.0,4.0,56,0.00,,SKC,0.00,VWS V14.00,2013-03-27 03:52:00,
2013-03-26 21:57:00,37.8,24.4,29.98,ENE,58,0.0,4.0,58,0.00,,SKC,0.00,VWS V14.00,2013-03-27 03:57:00,
2013-03-26 22:00:00,37.6,24.2,29.98,ENE,58,0.0,4.0,58,0.00,,SKC,0.00,VWS V14.00,2013-03-27 04:00:00,
2013-03-26 22:01:00,37.5,23.7,29.98,ENE,58,1.0,4.0,57,0.00,,SKC,0.00,VWS V14.00,2013-03-27 04:01:00,
2013-03-26 22:07:00,37.3,23.9,29.98,ENE,58,0.0,2.0,58,0.00,,SKC,0.00,VWS V14.00,2013-03-27 04:07:00,
2013-03-26 22:12:00,37.2,24.6,29.98,ENE,58,0.0,2.0,60,0.00,,SKC,0.00,VWS V14.00,2013-03-27 04:12:00,
2013-03-26 22:17:00,37.2,25.0,29.98,ENE,58,0.0,2.0,61,0.00,,SKC,0.00,VWS V14.00,2013-03-27 04:17:00,
2013-03-26 22:22:00,36.9,23.1,29.99,ENE,58,2.0,3.0,57,0.00,,SKC,0.00,VWS V14.00,2013-03-27 04:22:00,
2013-03-26 22:27:00,36.8,23.8,29.99,ENE,58,0.0,3.0,59,0.00,,SKC,0.00,VWS V14.00,2013-03-27 04:27:00,
2013-03-26 22:33:00,36.7,23.7,29.99,ENE,58,0.0,0.0,59,0.00,,SKC,0.00,VWS V14.00,2013-03-27 04:33:00,
2013-03-26 22:38:00,36.6,26.0,29.99,ENE,58,0.0,1.0,65,0.00,,SKC,0.00,VWS V14.00,2013-03-27 04:38:00,
2013-03-26 22:43:00,36.3,26.0,29.98,ENE,58,0.0,1.0,66,0.00,,SKC,0.00,VWS V14.00,2013-03-27 04:43:00,
2013-03-26 22:49:00,36.2,23.7,29.98,ENE,58,1.0,3.0,60,0.00,,SKC,0.00,VWS V14.00,2013-03-27 04:49:00,
2013-03-26 22:54:00,36.2,23.3,29.98,ENE,58,0.0,3.0,59,0.00,,SKC,0.00,VWS V14.00,2013-03-27 04:54:00,
2013-03-26 22:59:00,36.1,24.0,29.98,ENE,58,0.0,3.0,61,0.00,,SKC,0.00,VWS V14.00,2013-03-27 04:59:00,
2013-03-26 23:04:00,36.2,24.1,29.98,ENE,58,0.0,1.0,61,0.00,,SKC,0.00,VWS V14.00,2013-03-27 05:04:00,
2013-03-26 23:09:00,36.3,23.4,29.98,ENE,58,1.0,2.0,59,0.00,,SKC,0.00,VWS V14.00,2013-03-27 05:09:00,
2013-03-26 23:15:00,36.4,23.0,29.98,ENE,58,0.0,2.0,58,0.00,,SKC,0.00,VWS V14.00,2013-03-27 05:15:00,
2013-03-26 23:20:00,36.6,24.0,29.98,ENE,58,2.0,3.0,60,0.00,,SKC,0.00,VWS V14.00,2013-03-27 05:20:00,
2013-03-26 23:25:00,36.6,23.6,29.97,East,90,0.0,3.0,59,0.00,,SKC,0.00,VWS V14.00,2013-03-27 05:25:00,
2013-03-26 23:31:00,36.5,24.0,29.99,SE,131,2.0,4.0,60,0.00,,SKC,0.00,VWS V14.00,2013-03-27 05:31:00,
2013-03-26 23:36:00,37.0,22.8,29.99,ENE,61,5.0,5.0,56,0.00,,SKC,0.00,VWS V14.00,2013-03-27 05:36:00,
2013-03-26 23:42:00,38.8,23.6,29.98,East,101,5.0,8.0,54,0.00,,SKC,0.00,VWS V14.00,2013-03-27 05:42:00,
2013-03-26 23:47:00,40.7,22.5,29.97,NNE,12,3.0,8.0,48,0.00,,SKC,0.00,VWS V14.00,2013-03-27 05:47:00,
2013-03-26 23:52:00,41.7,23.0,29.96,North,360,5.0,8.0,47,0.00,,SKC,0.00,VWS V14.00,2013-03-27 05:52:00,
2013-03-26 23:57:00,42.3,24.5,29.97,North,360,0.0,8.0,49,0.00,,SKC,0.00,VWS V14.00,2013-03-27 05:57:00,